Temperature
21 21 20 20 21 22 24 25 26 26 26 26 26 26 24 23 22 20 19 20 19 19 19 19 19 19 19 19 19 19 19 19 19 19 19 19 19 18 19 19 19 19 19 19 18 18 18 18 18
21 21 21 21 22 23 24 25 25 26 26 26 26 25 24 22 21 20 19 19 19 19 19 19 19 19 19 19 19 19 19 19 19 19 19 19 19 18 18 18 18 18 18 18 18 18 18 18 18
21 21 22 22 24 24 24 26 26 27 26 26 26 24 23 21 20 20 19 19 19 19 19 19 19 19 19 19 19 19 19 19 19 19 19 19 19 18 18 18 18 18 18 18 18 18 18 18 18
22 22 23 24 25 26 26 27 27 27 26 26 26 24 21 20 20 19 19 19 19 19 19 19 19 18 18 18 18 18 18 18 18 18 18 18 18 18 18 18 18 18 18 18 18 18 18 18 18
23 24 23 24 25 27 27 27 27 26 26 26 25 23 21 20 19 19 19 19 19 19 18 18 18 18 18 18 18 18 18 18 18 18 18 18 18 18 18 18 18 18 18 18 18 18 18 18 18
24 25 23 24 25 27 27 27 27 27 26 26 25 23 21 20 19 19 19 19 19 19 18 18 18 18 18 18 18 18 18 18 18 18 18 18 18 18 18 18 18 18 18 18 18 18 18 18 18
25 25 25 26 25 26 27 27 27 26 26 25 25 23 21 20 19 19 20 19 19 19 18 18 18 18 18 18 18 18 18 18 18 18 18 18 18 18 18 18 18 18 18 18 18 18 18 18 18
25 26 25 25 26 26 27 27 26 26 25 24 24 23 21 20 20 20 20 19 19 19 18 18 18 18 18 17 17 17 17 17 17 17 18 18 18 18 18 18 18 18 18 18 18 18 18 18 18
26 25 24 25 26 26 27 27 26 25 25 24 23 22 21 20 20 20 20 20 19 19 18 18 18 18 17 17 17 17 17 17 17 17 17 17 17 17 17 18 18 18 18 18 18 18 18 18 18
28 25 26 26 27 27 27 27 26 26 25 24 23 22 21 21 21 21 20 20 19 19 18 18 18 18 17 17 17 17 16 16 16 16 16 17 17 17 17 17 17 17 18 18 18 18 18 18 18
28 27 27 27 27 27 27 26 26 26 25 24 23 22 22 21 21 21 20 20 19 19 18 18 18 17 17 17 17 16 16 16 16 16 16 16 16 16 17 17 17 17 17 18 18 18 18 18 18
28 27 27 27 26 27 26 26 26 25 25 24 23 23 22 22 21 21 20 20 19 19 18 18 17 17 17 17 16 16 16 16 16 16 16 16 16 16 16 16 17 17 17 17 17 18 18 18 18
28 27 27 26 26 26 26 26 25 25 24 24 23 22 22 22 21 21 20 20 19 19 18 18 17 17 16 16 16 16 15 15 15 15 15 15 15 16 16 16 16 16 17 17 17 17 17 17 17
27 27 27 26 26 26 26 26 25 25 24 24 23 23 22 22 21 21 20 20 19 19 18 18 17 16 16 16 15 15 15 15 15 15 15 15 15 15 15 15 16 16 16 16 17 17 17 17 17
28 28 27 27 26 26 26 26 26 25 24 24 24 23 22 22 21 21 20 19 19 18 18 17 17 16 16 15 15 15 14 15 14 14 14 14 15 15 15 15 15 15 16 16 16 17 17 17 17
28 27 26 27 26 26 25 25 26 25 24 24 24 23 22 22 21 21 20 19 19 18 18 17 17 16 15 15 14 14 14 14 14 14 14 14 14 14 14 15 15 15 15 15 16 16 16 17 17
27 25 26 26 27 26 26 26 27 25 25 24 24 24 23 22 22 21 20 19 18 18 17 17 16 16 15 15 14 14 14 14 14 14 14 14 14 14 14 14 14 14 15 15 15 16 16 16 17
25 26 26 27 27 26 26 26 27 26 25 25 24 24 24 23 22 21 20 19 18 18 17 17 16 15 15 14 14 14 14 14 13 13 13 13 13 13 13 14 14 14 14 15 15 15 16 16 16
26 27 27 27 28 27 27 27 27 27 26 25 25 25 24 23 22 21 20 19 18 18 17 16 16 15 14 14 14 13 13 13 13 13 13 13 13 13 13 13 13 14 14 14 15 15 15 16 16
27 27 27 28 28 28 27 27 28 28 26 25 25 25 24 23 22 21 20 19 18 17 16 16 15 15 14 14 14 13 13 13 13 13 13 13 13 13 13 13 13 13 14 14 14 14 15 15 15
28 27 27 27 28 28 27 27 28 27 26 25 25 24 23 23 22 21 20 19 18 17 16 16 15 15 14 14 14 13 13 13 13 13 13 13 13 13 13 13 13 13 13 14 14 14 14 15 15
27 28 27 27 26 26 27 26 27 26 26 25 25 24 23 22 21 20 19 18 18 17 16 16 15 15 14 14 14 13 13 13 13 13 13 13 13 13 13 13 13 13 13 13 13 14 14 14 15
28 28 27 27 26 26 27 27 27 26 26 25 25 24 23 22 21 20 19 18 18 17 16 15 15 14 14 14 13 13 13 13 13 13 13 12 12 12 13 13 13 13 13 13 13 13 14 14 14
28 28 27 27 26 25 27 27 26 26 26 25 25 24 23 22 21 20 19 18 17 17 16 15 15 14 14 14 14 13 13 13 13 13 13 12 12 12 12 12 12 12 13 13 13 13 13 14 14
27 27 26 26 25 26 28 27 26 25 26 25 25 24 23 22 21 20 19 18 17 16 16 15 15 15 14 14 14 13 13 13 13 12 12 12 12 12 12 12 12 12 12 12 13 13 13 13 14
28 27 25 25 26 27 27 26 25 26 25 24 24 23 22 22 21 20 19 18 17 17 16 15 15 15 14 14 14 13 13 13 12 12 12 12 12 12 12 12 12 12 12 12 12 13 13 13 13
27 27 28 26 26 26 27 27 25 25 25 25 24 23 23 22 21 20 19 18 17 17 16 16 15 15 14 14 14 13 13 13 12 12 12 12 12 12 12 12 12 12 12 12 12 13 13 13 13
27 27 27 26 25 25 27 27 25 25 25 25 25 24 23 22 21 20 19 18 18 17 16 16 15 15 14 14 14 13 13 13 12 12 12 12 12 12 12 12 12 12 12 12 12 12 13 13 13
26 26 26 26 26 24 24 25 26 25 25 25 25 24 23 22 21 20 19 18 18 17 17 16 16 15 15 14 14 13 13 13 12 12 12 12 12 12 12 12 12 12 12 12 12 12 13 13 13
27 27 27 25 25 26 24 24 26 26 25 25 24 23 23 22 21 20 19 19 18 17 17 16 16 15 15 14 14 13 13 13 12 12 12 12 12 12 12 12 12 12 12 12 12 12 12 13 13
Wind_Speed
9 10 7 3 2 1 7 7 9 9 8 10 10 10 13 13 8 6 1 5 8 9 12 10 8 6 5 4 4 4 3 3 3 4 4 4 4 4 4 4 4 3 3 3 3 3 4 4 4
9 7 5 3 1 2 6 7 8 9 8 7 8 11 13 11 10 6 3 6 9 10 11 10 8 7 6 5 5 5 4 4 4 4 4 4 4 5 4 4 5 4 4 3 3 2 3 3 3
11 8 4 2 2 6 6 7 6 8 9 8 7 11 8 6 8 4 5 6 9 10 11 11 9 7 6 6 5 4 4 4 4 5 5 5 5 5 5 5 5 5 4 4 3 2 2 2 2
6 4 3 1 6 10 8 6 6 6 7 8 7 9 7 8 5 5 7 8 9 8 10 11 9 7 6 5 5 5 4 4 5 5 5 6 6 6 6 6 6 6 5 4 4 3 2 2 2
6 4 1 2 7 8 8 7 7 8 7 9 10 9 8 8 8 8 7 7 7 7 8 8 8 7 5 5 4 4 4 4 5 5 5 6 6 6 7 7 7 7 6 6 5 4 4 3 3
4 2 1 2 5 7 7 7 7 7 8 8 7 9 7 7 8 6 5 6 6 6 6 6 7 6 4 4 3 3 4 4 4 5 6 6 7 7 8 8 8 8 7 7 7 6 6 5 5
5 4 2 3 6 5 6 7 8 7 8 9 6 7 7 8 6 5 5 5 6 5 4 3 4 4 3 2 2 1 2 3 5 6 7 7 8 9 10 10 10 9 9 9 9 7 7 7 6
4 4 5 4 5 4 5 5 6 7 7 8 7 6 6 6 5 4 4 5 5 5 3 3 3 2 1 2 4 2 3 4 6 8 9 9 9 10 11 12 11 11 11 10 10 9 9 9 8
4 3 4 5 5 4 4 3 4 5 7 9 10 10 8 6 4 3 3 4 5 5 4 4 3 4 3 3 0 3 5 6 7 9 9 9 9 9 9 11 12 12 12 11 11 10 10 10 11
3 2 4 4 5 4 4 4 3 3 5 6 9 9 8 5 3 3 3 5 4 5 6 5 5 4 5 6 4 3 5 4 6 6 6 6 6 7 8 8 11 12 12 12 12 12 11 11 11
2 2 2 3 4 3 2 2 2 2 2 3 6 7 6 4 3 3 4 4 3 4 5 5 5 5 4 3 4 4 5 5 6 7 7 6 5 5 6 5 6 9 10 9 10 11 10 10 10
1 1 2 2 3 2 2 1 2 2 3 6 7 5 4 2 2 2 3 2 2 4 4 4 5 5 5 5 3 3 2 2 4 6 8 6 2 2 3 2 4 5 5 5 6 5 8 9 10
3 2 2 1 1 1 1 1 1 1 3 4 5 3 3 2 2 2 3 4 4 5 5 5 5 6 5 4 3 4 3 3 5 5 6 7 3 4 3 3 3 4 5 4 4 4 6 6 7
1 1 3 4 4 3 4 4 5 4 5 5 5 5 3 2 1 3 4 5 5 6 6 5 6 5 5 5 5 4 4 5 5 4 6 8 5 3 3 3 3 3 4 4 4 5 6 6 5
4 6 7 7 6 4 4 8 7 7 7 6 6 5 4 1 0 1 4 3 5 6 6 6 6 6 6 6 6 4 4 5 3 5 8 8 7 4 4 4 4 3 5 5 4 4 4 5 5
10 10 8 7 7 4 3 6 4 10 9 6 5 3 5 3 2 1 4 4 5 5 5 5 7 7 7 7 5 4 4 4 4 5 6 8 8 7 4 4 4 4 4 3 3 4 4 4 4
8 7 7 4 9 5 6 7 3 9 8 6 6 5 6 5 4 2 4 4 4 4 5 6 6 6 6 6 5 4 4 4 4 5 4 6 8 9 5 4 4 4 3 3 4 4 4 4 4
5 6 8 5 5 5 8 8 7 9 9 6 5 6 5 5 4 4 6 3 3 4 6 6 6 6 6 5 5 4 5 5 4 3 4 6 6 8 6 5 5 4 3 3 4 4 4 3 4
8 9 10 5 2 4 9 10 6 6 8 6 5 4 3 3 3 6 6 3 3 5 6 6 6 6 5 4 4 5 5 5 5 4 5 6 6 7 5 6 5 5 4 4 4 4 4 3 3
10 11 10 5 1 5 10 12 7 4 5 3 2 2 1 3 2 5 5 3 4 4 5 5 5 5 4 3 4 4 4 4 4 4 5 6 6 6 6 5 4 5 4 5 4 4 3 3 4
10 8 7 9 10 10 11 10 3 8 5 4 2 1 2 3 2 4 4 4 3 3 4 5 5 5 5 5 3 4 4 4 4 5 4 5 5 5 4 5 5 5 4 4 5 4 4 4 4
8 4 7 10 10 9 7 6 3 10 7 6 4 3 2 3 2 3 3 4 3 4 4 4 6 6 6 6 4 5 4 4 5 5 5 6 5 5 5 4 5 5 4 4 5 4 4 4 4
3 4 9 11 11 12 10 7 3 9 6 6 6 4 4 4 2 3 4 4 3 4 4 4 5 5 6 6 5 4 4 4 4 5 6 6 6 5 5 4 4 4 4 4 5 4 4 4 4
4 9 13 12 9 10 5 2 2 5 7 6 6 5 5 4 3 3 4 5 3 3 3 3 4 4 5 6 6 5 6 6 7 6 6 6 5 5 6 5 4 4 3 4 4 4 5 4 5
7 9 7 6 6 4 5 1 4 10 8 6 5 5 5 4 3 3 2 3 2 2 2 3 3 4 5 6 6 7 6 6 7 6 6 6 5 5 6 6 4 3 4 4 4 4 4 5 5
6 7 6 6 6 4 2 3 8 10 7 4 3 4 2 1 4 3 2 3 2 1 1 3 4 4 5 5 6 6 6 5 5 6 6 6 5 5 6 6 5 4 4 4 4 4 4 4 4
5 5 3 5 10 9 3 7 8 8 7 4 3 4 4 3 3 3 3 3 2 1 1 2 3 4 5 5 6 5 5 5 6 6 6 5 6 6 7 7 6 4 3 3 4 3 4 4 4
6 7 5 5 5 6 3 3 6 6 4 3 1 2 3 4 3 3 3 3 1 1 1 1 1 2 3 4 5 5 5 5 6 6 6 6 6 6 7 7 6 5 3 3 3 3 3 3 4
8 7 5 5 5 4 4 4 6 6 5 3 3 3 3 3 3 3 4 3 2 0 0 0 1 2 2 4 5 5 5 5 5 6 7 6 6 6 6 6 6 6 5 4 3 3 3 3 3
5 7 6 5 5 3 4 2 6 6 3 2 2 2 2 2 3 3 4 3 2 1 1 1 1 2 3 3 4 5 5 5 6 6 7 7 6 6 7 6 6 6 6 5 4 4 4 3 3
Wind_Direction
217 226 225 239 256 261 59 56 49 33 36 37 37 55 66 53 45 75 44 33 73 89 100 96 78 66 53 43 29 14 5 352 343 337 333 328 318 310 310 311 313 324 329 335 346 358 5 17 20
240 231 235 231 271 63 66 58 51 48 33 29 46 57 67 59 58 81 52 45 69 79 85 87 81 65 49 32 19 11 2 347 333 324 317 310 303 302 302 301 301 305 310 311 322 337 354 6 4
253 245 252 242 28 63 65 56 51 62 48 39 55 59 53 50 51 61 43 58 69 71 79 84 79 67 51 36 24 10 355 339 327 319 313 305 294 288 288 287 288 295 292 291 294 306 325 329 335
244 240 252 296 63 62 63 61 51 57 59 50 63 72 68 50 60 68 56 59 68 74 80 87 80 71 59 44 26 10 359 345 329 316 309 301 289 279 274 273 272 275 278 276 271 271 283 292 299
241 253 291 30 67 68 58 48 58 60 51 54 69 88 85 73 78 73 69 68 70 79 86 94 94 84 70 55 35 14 358 344 330 316 305 294 286 280 274 264 263 264 266 264 263 259 260 269 275
266 256 296 68 79 72 63 47 46 61 61 56 80 98 91 93 85 84 84 80 76 77 83 100 117 116 103 84 58 31 8 345 324 309 298 291 282 275 272 265 259 257 257 259 258 253 251 253 259
277 289 315 63 87 67 59 49 43 44 45 38 47 92 105 93 96 100 89 84 77 68 63 65 104 131 137 130 116 62 342 321 309 295 286 280 276 268 260 257 253 252 252 253 252 246 244 245 248
285 297 348 20 65 78 65 59 49 42 56 46 37 77 106 105 110 96 87 77 70 62 49 40 33 60 123 198 167 207 254 268 278 280 274 269 267 263 254 251 249 248 247 247 248 244 240 239 241
263 309 6 21 32 67 65 59 73 75 75 74 71 78 101 121 129 113 86 72 56 44 38 20 7 17 358 323 217 230 253 245 257 269 263 259 262 266 254 241 242 242 241 241 242 242 240 237 238
237 337 25 18 23 65 58 40 31 105 98 100 102 106 124 141 123 81 57 52 41 34 31 8 6 358 357 349 354 329 318 294 280 289 284 265 267 273 274 259 245 239 240 241 239 238 238 234 236
296 0 51 43 32 34 53 51 1 13 66 101 120 126 132 133 107 63 49 42 31 41 38 359 3 354 353 348 356 337 313 312 310 312 312 301 285 276 273 261 245 233 234 236 238 230 230 229 231
272 46 352 64 51 342 2 355 15 27 63 83 103 124 137 141 99 90 65 37 26 45 41 11 9 353 350 356 351 310 323 329 316 317 322 314 294 270 267 256 253 238 226 222 225 223 226 230 236
241 155 205 112 169 270 287 276 299 210 117 116 121 145 170 118 33 38 68 34 16 30 30 30 13 358 349 351 330 345 346 331 314 312 308 301 289 281 269 257 251 249 246 225 223 220 229 231 241
332 215 207 196 193 229 251 245 224 197 167 180 184 195 186 114 41 356 38 25 7 19 11 22 9 357 348 352 352 343 330 309 305 322 311 303 298 293 289 277 262 252 251 242 230 225 226 225 232
244 238 221 207 211 209 262 261 224 173 179 206 211 205 151 146 261 300 64 22 17 16 2 9 351 3 358 358 356 334 307 319 325 318 312 314 312 301 292 290 275 252 254 252 248 252 241 228 225
248 251 247 201 204 186 239 293 153 157 182 207 221 209 159 176 232 33 64 33 25 5 355 3 1 4 1 -0 339 321 327 336 317 317 321 323 321 313 305 292 280 264 259 248 248 245 251 238 230
246 265 282 216 192 193 231 280 194 170 189 207 215 212 190 182 189 127 83 42 13 352 2 14 17 6 6 349 338 339 339 328 319 326 329 326 325 322 317 301 283 272 253 246 253 239 234 237 234
278 288 289 281 177 220 257 268 243 191 184 209 225 221 205 181 164 120 93 59 3 17 16 18 9 8 3 357 346 340 331 330 325 328 323 328 325 323 317 296 292 289 269 253 251 256 239 231 227
291 285 290 294 147 265 287 286 259 199 173 197 225 235 224 147 121 109 97 71 31 34 24 11 7 5 4 5 336 331 328 330 319 319 330 334 328 321 306 299 296 293 281 266 255 252 243 236 218
264 278 295 321 356 299 293 289 271 174 158 157 266 300 346 98 91 98 93 69 41 37 35 7 4 354 3 351 329 326 328 315 312 328 327 325 317 310 306 307 304 299 287 276 263 254 241 241 213
264 282 311 320 312 283 272 276 204 127 127 137 177 75 24 71 46 65 73 61 40 35 43 2 354 356 357 347 350 340 332 321 332 326 322 313 309 307 302 303 300 296 290 276 264 248 234 236 231
275 342 316 302 299 298 289 294 190 141 154 159 151 134 116 93 79 87 82 68 31 44 43 5 5 359 359 353 355 337 325 323 322 322 316 317 316 313 307 294 285 281 278 275 268 253 236 228 232
299 316 290 285 284 281 267 267 146 140 146 131 122 115 105 104 96 93 97 83 40 44 37 3 356 359 355 342 336 321 328 318 316 322 323 324 317 314 309 294 283 279 275 274 268 268 249 231 226
296 277 264 253 259 264 241 271 99 103 83 86 99 110 111 102 95 85 88 94 66 46 27 352 357 352 341 340 334 341 338 331 327 332 329 325 320 317 316 312 304 290 281 279 272 260 258 246 239
243 271 279 253 222 225 112 189 81 86 73 63 64 78 83 100 102 93 80 93 82 53 15 342 354 350 346 344 341 344 345 339 336 339 326 323 324 324 325 325 314 299 290 288 280 262 258 254 245
241 265 290 308 313 334 190 160 101 100 94 90 105 106 105 138 126 133 126 111 106 69 20 345 356 348 344 342 344 339 347 345 340 334 326 325 321 318 320 319 312 299 288 286 281 266 258 252 246
272 258 305 309 290 284 229 125 119 123 138 150 165 155 173 163 149 152 143 136 135 121 44 350 348 341 345 345 336 339 349 347 342 336 332 327 326 330 331 324 319 308 293 286 276 267 266 257 245
276 318 305 274 302 304 295 118 117 128 106 104 169 164 142 141 143 141 139 134 129 141 172 320 320 327 342 346 338 351 355 352 341 333 332 338 338 335 332 336 332 328 321 299 280 270 267 264 252
206 230 245 273 279 289 331 51 81 85 70 31 10 48 75 112 133 137 131 128 136 212 201 242 318 354 15 1 346 355 355 346 346 341 340 342 336 338 336 338 342 343 343 333 324 305 280 260 257
259 260 268 271 296 299 288 99 105 104 109 110 59 59 70 106 129 139 135 145 153 199 308 324 5 20 26 11 358 359 346 353 356 347 343 341 343 347 345 349 352 350 353 345 339 326 320 299 279
Height
1524 1524 1525 1527 1527 1529 1528 1523 1519 1518 1517 1518 1518 1518 1523 1527 1531 1541 1540 1537 1536 1536 1535 1535 1535 1535 1536 1536 1536 1537 1537 1538 1538 1539 1539 1539 1540 1540 1541 1541 1541 1541 1541 1541 1541 1541 1541 1542 1542
1524 1525 1527 1527 1529 1536 1532 1522 1521 1520 1520 1519 1519 1521 1525 1530 1534 1537 1538 1538 1537 1536 1536 1535 1535 1536 1536 1536 1536 1536 1537 1537 1538 1538 1538 1539 1539 1539 1540 1540 1540 1540 1540 1541 1541 1541 1541 1541 1542
1524 1525 1527 1525 1526 1531 1530 1521 1520 1520 1521 1521 1521 1525 1529 1534 1536 1537 1538 1538 1537 1536 1536 1535 1535 1535 1535 1535 1535 1536 1536 1536 1536 1537 1537 1537 1537 1538 1538 1539 1539 1539 1539 1540 1540 1540 1541 1541 1541
1525 1526 1525 1525 1526 1520 1520 1519 1519 1520 1521 1522 1523 1528 1534 1537 1538 1538 1538 1538 1537 1536 1536 1535 1535 1535 1535 1534 1534 1534 1535 1535 1535 1535 1535 1535 1536 1536 1537 1537 1537 1538 1538 1538 1539 1539 1540 1540 1540
1526 1525 1526 1528 1523 1518 1518 1519 1520 1521 1522 1524 1525 1531 1537 1539 1539 1539 1538 1538 1537 1537 1536 1535 1535 1534 1534 1533 1533 1533 1533 1533 1533 1533 1533 1533 1534 1534 1535 1535 1536 1536 1536 1537 1537 1538 1539 1539 1539
1526 1522 1530 1532 1525 1519 1519 1520 1521 1522 1523 1525 1527 1531 1538 1539 1539 1539 1539 1538 1537 1537 1536 1535 1534 1534 1533 1532 1532 1531 1531 1531 1531 1531 1531 1531 1531 1532 1532 1533 1533 1534 1534 1535 1535 1536 1537 1537 1538
1526 1522 1525 1523 1524 1523 1520 1521 1523 1524 1525 1527 1529 1532 1538 1539 1539 1540 1539 1539 1538 1537 1537 1536 1534 1533 1532 1531 1530 1530 1529 1529 1528 1528 1528 1528 1528 1529 1530 1530 1531 1532 1532 1533 1534 1534 1535 1536 1536
1524 1522 1526 1524 1524 1524 1521 1522 1525 1526 1528 1530 1531 1533 1538 1540 1540 1540 1539 1539 1538 1537 1537 1536 1535 1533 1531 1530 1529 1528 1527 1527 1526 1526 1526 1526 1526 1526 1527 1527 1528 1529 1530 1530 1531 1532 1533 1533 1534
1523 1525 1531 1526 1524 1523 1522 1523 1525 1527 1529 1531 1533 1535 1538 1539 1539 1539 1539 1539 1538 1538 1536 1535 1534 1533 1531 1530 1528 1527 1526 1525 1524 1524 1523 1523 1523 1523 1523 1524 1524 1525 1526 1527 1528 1529 1530 1531 1532
1521 1527 1526 1522 1521 1522 1523 1524 1526 1527 1529 1531 1534 1536 1538 1539 1539 1539 1539 1539 1538 1537 1536 1535 1534 1532 1531 1529 1528 1526 1525 1524 1523 1522 1522 1521 1521 1520 1520 1521 1521 1522 1523 1524 1525 1526 1527 1528 1530
1518 1522 1521 1521 1522 1522 1523 1525 1526 1527 1529 1531 1533 1536 1538 1538 1539 1539 1539 1538 1538 1537 1535 1534 1533 1531 1530 1528 1527 1525 1524 1522 1521 1520 1519 1519 1518 1518 1517 1517 1518 1519 1519 1521 1522 1523 1524 1526 1527
1518 1520 1520 1521 1523 1523 1524 1525 1526 1528 1530 1531 1533 1535 1537 1537 1538 1538 1538 1537 1537 1536 1534 1533 1531 1530 1529 1527 1525 1524 1522 1521 1519 1518 1517 1516 1515 1515 1515 1514 1515 1516 1517 1518 1519 1520 1521 1523 1525
1517 1519 1521 1522 1523 1524 1524 1525 1527 1528 1530 1531 1533 1535 1536 1536 1537 1537 1537 1537 1536 1535 1533 1532 1530 1529 1527 1526 1524 1522 1520 1519 1517 1516 1515 1514 1513 1512 1512 1512 1512 1513 1513 1514 1516 1517 1518 1520 1521
1518 1518 1519 1521 1522 1523 1523 1524 1525 1526 1529 1531 1532 1533 1534 1535 1536 1536 1536 1536 1535 1534 1533 1531 1529 1528 1526 1524 1522 1520 1518 1517 1515 1514 1513 1512 1511 1510 1509 1509 1509 1509 1510 1511 1512 1513 1515 1516 1518
1517 1516 1517 1518 1520 1520 1522 1522 1520 1523 1526 1528 1530 1531 1532 1534 1535 1535 1534 1535 1534 1533 1532 1530 1528 1526 1525 1522 1520 1518 1517 1515 1513 1512 1510 1509 1508 1507 1507 1506 1506 1507 1507 1508 1509 1510 1511 1513 1515
1515 1516 1520 1516 1517 1519 1524 1525 1517 1520 1523 1526 1527 1528 1530 1531 1533 1533 1533 1533 1533 1532 1531 1529 1527 1525 1523 1520 1518 1516 1515 1513 1511 1510 1508 1507 1506 1505 1504 1503 1503 1504 1504 1505 1505 1506 1508 1510 1511
1517 1524 1522 1517 1514 1516 1520 1520 1515 1517 1519 1522 1524 1526 1527 1528 1530 1531 1531 1532 1532 1531 1529 1528 1526 1523 1521 1519 1517 1515 1512 1510 1509 1507 1506 1504 1503 1502 1501 1500 1500 1501 1501 1501 1502 1503 1504 1506 1508
1524 1523 1519 1516 1511 1514 1515 1514 1510 1512 1515 1519 1521 1522 1523 1525 1527 1528 1529 1530 1530 1529 1528 1526 1524 1522 1520 1517 1515 1512 1510 1508 1507 1505 1503 1501 1500 1499 1498 1497 1497 1497 1498 1498 1499 1500 1501 1503 1504
1515 1517 1516 1511 1508 1511 1512 1509 1506 1507 1511 1515 1518 1519 1521 1523 1525 1526 1527 1528 1529 1528 1526 1525 1523 1521 1518 1516 1513 1510 1508 1506 1504 1502 1501 1499 1497 1496 1494 1494 1493 1494 1494 1495 1495 1497 1498 1499 1501
1512 1515 1513 1508 1506 1509 1509 1506 1501 1504 1508 1513 1516 1518 1519 1521 1524 1525 1526 1527 1527 1526 1525 1524 1522 1520 1517 1515 1512 1510 1507 1505 1503 1501 1498 1496 1494 1493 1491 1490 1490 1490 1490 1491 1492 1493 1494 1496 1498
1509 1511 1512 1513 1507 1504 1507 1507 1500 1503 1508 1512 1515 1517 1519 1521 1523 1525 1525 1526 1526 1525 1524 1523 1521 1519 1516 1514 1511 1508 1506 1503 1501 1499 1496 1494 1492 1490 1489 1487 1487 1487 1487 1487 1489 1490 1491 1493 1495
1512 1507 1509 1510 1515 1514 1507 1520 1505 1503 1507 1510 1513 1516 1519 1521 1522 1524 1524 1524 1525 1524 1522 1521 1520 1518 1515 1513 1510 1507 1504 1502 1499 1497 1494 1492 1490 1488 1486 1485 1484 1483 1484 1484 1485 1486 1488 1489 1491
1507 1506 1508 1509 1512 1515 1506 1512 1507 1502 1506 1508 1511 1515 1517 1519 1521 1522 1523 1523 1523 1523 1521 1520 1519 1517 1514 1512 1509 1506 1504 1501 1498 1495 1493 1490 1488 1486 1484 1482 1481 1480 1480 1481 1482 1483 1484 1486 1488
1505 1507 1505 1505 1510 1521 1505 1511 1511 1505 1506 1508 1511 1514 1517 1519 1520 1521 1522 1522 1522 1521 1520 1519 1518 1515 1513 1511 1508 1506 1503 1500 1497 1494 1491 1488 1486 1484 1482 1480 1479 1478 1478 1478 1479 1480 1481 1482 1484
1506 1513 1521 1521 1523 1515 1499 1508 1511 1505 1505 1509 1511 1514 1516 1518 1519 1520 1521 1521 1521 1520 1519 1518 1516 1514 1512 1510 1507 1505 1502 1499 1496 1493 1490 1487 1484 1482 1479 1477 1476 1475 1475 1475 1476 1477 1478 1479 1481
1503 1509 1525 1534 1525 1512 1501 1508 1509 1503 1507 1510 1512 1514 1516 1517 1518 1519 1520 1520 1519 1519 1518 1517 1515 1513 1511 1509 1506 1504 1501 1498 1495 1492 1489 1486 1483 1480 1478 1476 1474 1473 1472 1472 1473 1473 1474 1476 1477
1506 1505 1503 1517 1516 1517 1503 1501 1505 1503 1506 1509 1510 1512 1514 1515 1516 1517 1518 1518 1518 1517 1517 1516 1514 1512 1510 1508 1505 1503 1500 1497 1494 1491 1488 1485 1482 1479 1477 1474 1472 1470 1470 1469 1470 1470 1471 1473 1474
1503 1504 1508 1516 1525 1527 1508 1503 1510 1506 1506 1506 1508 1509 1511 1513 1514 1515 1516 1517 1517 1516 1515 1514 1513 1511 1509 1507 1505 1502 1499 1496 1493 1490 1487 1484 1481 1478 1475 1473 1470 1469 1468 1467 1468 1468 1469 1470 1471
1505 1507 1508 1512 1513 1527 1528 1521 1502 1504 1505 1506 1507 1508 1510 1511 1513 1514 1514 1515 1515 1515 1515 1514 1512 1510 1508 1506 1504 1502 1499 1496 1493 1490 1487 1484 1481 1478 1475 1472 1470 1468 1467 1466 1466 1466 1467 1468 1469
1498 1501 1504 1518 1516 1511 1521 1520 1500 1501 1503 1505 1506 1508 1509 1510 1511 1512 1513 1514 1514 1514 1514 1513 1511 1510 1508 1506 1504 1501 1499 1496 1493 1490 1487 1484 1481 1478 1475 1473 1470 1468 1466 1465 1464 1464 1465 1466 1467